Location: Newark
(34.9471°N, 136.1778°E)
Time: 11:19:25
(UTC+00:00)

METEOR M2 - Pass Details

Date: 01 March 2020
Orbit: 818 x 828 km, 98.5° (Epoch: 05 April)

Event Time Altitude Azimuth Distance (km) Brightness Sun altitude
Exits shadow 12:13:11 - 236° (SW) 2,715 ? -41.4°
Reaches altitude 10° 12:15:07 10° 254° (WSW) 2,427 ? -41.8°
Maximum altitude 12:16:28 11° 269° (W) 2,365 ? -42.0°
Drops below altitude 10° 12:17:50 10° 284° (WNW) 2,431 ? -42.3°
Sets 12:22:23 0° 320° (NW) 3,371 ? -43.1°
